Weather History for PAMR - January, 2013

Change the Weather History Date:

Friday, January 25, 2013

  Actual Average Record
Temperature  
Mean Temperature 22 °F -  
Max Temperature 37 °F 22 °F 39 °F (2001)
Min Temperature 6 °F 9 °F -11 °F (2006)
Degree Days  
Heating Degree Days 42    
Moisture  
Dew Point 9 °F    
Average Humidity 61    
Maximum Humidity 100    
Minimum Humidity 41    
Precipitation  
Precipitation 0.07 in - - ()
Sea Level Pressure  
Sea Level Pressure 29.47 in    
Wind  
Wind Speed 8 mph (NNW)    
Max Wind Speed 13 mph    
Max Gust Speed 20 mph    
Visibility 8 miles    
Events Snow    
Averages and records for this station are not official NWS values.
T = Trace of Precipitation, MM = Missing Value Source: NWS Daily Summary

Daily Weather History Graph

Daily Weather History Graph

Search for Another Location

Airport or City:

Trip Planner

Search our weather history database for the weather conditions in past years. The results will help you decide how hot, cold, wet, or windy it might be!

Date:

Astronomy

Jan. 25, 2013 Rise Set
Actual Time 9:35 AM AKST 4:48 PM AKST
Civil Twilight 8:43 AM AKST 5:40 PM AKST
Nautical Twilight 7:49 AM AKST 6:35 PM AKST
Astronomical Twilight 6:58 AM AKST 7:26 PM AKST
Moon 3:58 PM AKST (1/25) 8:22 AM AKST (1/25)
Length of Visible Light 8h 57m
Length of Day
7h 13m
Waxing Gibbous, 98% of the Moon is Illuminated
Jan 25
Waxing Gibbous
Jan 26
Full
Feb 3
Last Quarter
Feb 9
New
Feb 17
First Quarter

Hourly Weather History & Observations

Time (AKST) Temp. Windchill Dew Point Humidity Pressure Visibility Wind Dir Wind Speed Gust Speed Precip Events Conditions
12:53 AM 37.0 °F 32.4 °F 28.0 °F 70% 29.37 in 10.0 mi SSW 5.8 mph - N/A   Overcast
1:53 AM 37.0 °F 29.3 °F 28.0 °F 70% 29.36 in 10.0 mi South 11.5 mph 18.4 mph 0.00 in Snow Light Snow
2:36 AM 37.4 °F 30.8 °F 28.4 °F 70% 29.34 in 9.0 mi South 9.2 mph 19.6 mph 0.00 in Snow Light Snow
3:53 AM 30.9 °F 21.7 °F 28.9 °F 92% 29.35 in 9.0 mi NW 11.5 mph 18.4 mph 0.00 in   Small Hail
4:13 AM 28.4 °F 18.0 °F 26.6 °F 93% 29.35 in 3.0 mi NNW 12.7 mph 19.6 mph 0.01 in Snow Light Snow
4:23 AM 26.6 °F 16.2 °F 26.6 °F 100% 29.35 in 2.0 mi NNW 11.5 mph - 0.02 in Snow Light Snow
4:31 AM 26.6 °F 17.5 °F 26.6 °F 100% 29.36 in 1.0 mi NNW 9.2 mph - 0.03 in Snow Light Snow
4:48 AM 24.8 °F 15.3 °F 24.8 °F 100% 29.36 in 0.8 mi NNW 9.2 mph - 0.04 in Snow Light Snow
4:53 AM 25.0 °F 17.1 °F 23.0 °F 92% 29.37 in 0.8 mi NW 6.9 mph - 0.04 in Snow Light Snow
5:53 AM 26.1 °F 18.4 °F 21.0 °F 81% 29.39 in 1.5 mi North 6.9 mph - 0.03 in Snow Light Snow
6:00 AM 24.8 °F 13.4 °F 12.2 °F 59% 29.38 in 3.0 mi North 12.7 mph - 0.00 in Snow Light Snow
6:39 AM 24.8 °F 16.1 °F 14.0 °F 64% 29.39 in 9.0 mi North 8.1 mph - 0.00 in Snow Light Snow
6:53 AM 25.0 °F 16.3 °F 10.0 °F 53% 29.40 in 9.0 mi North 8.1 mph - 0.00 in Snow Light Snow
7:53 AM 23.0 °F 11.7 °F 6.1 °F 48% 29.42 in 10.0 mi North 11.5 mph - 0.00 in Snow Light Snow
8:53 AM 19.9 °F 7.3 °F 7.0 °F 57% 29.44 in 10.0 mi North 12.7 mph - 0.00 in Snow Light Snow
9:00 AM 19.4 °F 10.4 °F 6.8 °F 58% 29.44 in 9.0 mi North 6.9 mph - 0.00 in Snow Light Snow
9:04 AM 19.4 °F 8.6 °F 6.8 °F 58% 29.44 in 10.0 mi North 9.2 mph - 0.00 in   Overcast
9:53 AM 19.9 °F 10.1 °F 3.9 °F 50% 29.46 in 10.0 mi North 8.1 mph - 0.00 in   Overcast
10:53 AM 18.0 °F 7.7 °F 3.9 °F 54% 29.49 in 10.0 mi NNW 8.1 mph - N/A   Mostly Cloudy
11:53 AM 18.0 °F 9.8 °F 3.0 °F 52% 29.50 in 10.0 mi North 5.8 mph - N/A   Scattered Clouds
12:53 PM 19.0 °F 11.1 °F 1.0 °F 46% 29.51 in 10.0 mi North 5.8 mph - N/A   Scattered Clouds
1:53 PM 19.0 °F 11.1 °F 1.0 °F 46% 29.52 in 10.0 mi North 5.8 mph - N/A   Clear
2:53 PM 18.0 °F 8.7 °F -0.9 °F 44% 29.53 in 10.0 mi North 6.9 mph - N/A   Clear
3:53 PM 17.1 °F 5.8 °F -2.9 °F 41% 29.55 in 10.0 mi NNW 9.2 mph - N/A   Clear
4:53 PM 15.1 °F 3.3 °F -4.0 °F 43% 29.57 in 10.0 mi NNW 9.2 mph - N/A   Clear
5:53 PM 14.0 °F 0.5 °F -5.1 °F 43% 29.57 in 10.0 mi NNW 11.5 mph - N/A   Clear
6:53 PM 12.9 °F 1.6 °F -7.1 °F 41% 29.59 in 10.0 mi NNW 8.1 mph - N/A   Clear
7:53 PM 12.0 °F 0.5 °F -7.1 °F 42% 29.61 in 10.0 mi North 8.1 mph - N/A   Clear
8:53 PM 10.0 °F 3.6 °F -7.1 °F 46% 29.61 in 10.0 mi NNE 3.5 mph - N/A   Clear
9:53 PM 9.0 °F -2.2 °F -9.0 °F 44% 29.62 in 10.0 mi NNW 6.9 mph - N/A   Clear
10:53 PM 8.1 °F - -9.0 °F 46% 29.64 in 10.0 mi Calm Calm - N/A   Scattered Clouds
11:53 PM 6.1 °F - -8.0 °F 53% 29.65 in 10.0 mi Calm Calm - N/A   Scattered Clouds